www.pogodaiklimat.ru

АРХИВ ПОГОДЫ в Тюмени

Время (UTC), дата Ветер
(напр.,м/с)
 
Видим.   Явления Облачность Т
(С)
Тd
(С)
f
(%)
Тe
(С)
Тes
(С)
Комфортность P
(гПа)
Po
(гПа)
Тmin
(С)
Tmax
(С)
R
(мм)
S
(см)
06 26.11 ЮЗ 3 4000 м слабый ливневой снег 10/6 600 м
[Cb calv Ac As]
-1.4 -4.0 82 -6 -6 тепло 1006.5 993.8
09 26.11 ЮЗ 2 4000 м {ливн. осадки, снег} 10/0
[As op]
-0.6 -3.4 81 -4 -4 тепло 1007.7 994.9
12 26.11 В 1 50 км слабый снег {ливн. осадки} 10/0
[Ac As]
-1.7 -2.2 96 -4 -4 тепло 1008.0 995.1
15 26.11 ЮВ 1 17 км снег 10/0
[Ac As]
-2.0 -2.3 98 -4 -4 тепло 1006.4 993.6 -0.2 2
18 26.11 ЮВ 2 50 км слабый ливневой снег 10/10 600 м
[Cb calv]
-1.6 -1.8 99 -6 -6 тепло 1004.8 992.0
21 26.11 ЮВ 3 4900 м ливневой снег 10/10 600 м
[Cb cap]
-0.9 -1.1 99 -6 -6 тепло 1001.6 988.9
00 27.11 Ю 5-10
{11}
50 км слабый ливневой снег {метель} 10/10 600 м
[Cb cap]
-1.5 -2.0 96 -8 -8 тепло 998.4 985.7
03 27.11 Ю 4
{10}
50 км слабый ливневой снег {метель} 10/10 600 м
[Cb calv]
-1.6 -2.1 96 -8 -8 тепло 998.3 985.6 -2.3 4 25
06 27.11 ЮЗ 5-10
{10}
4000 м слабый ливневой снег {метель} 10/10 600 м
[Cb cap]
-1.2 -1.9 95 -8 -8 тепло 1001.2 988.5
09 27.11 З 6-11
{18}
4000 м позёмок {ливн. осадки, метель} 4/4 600 м
[Cb calv]
-4.2 -8.4 72 -12 -11 по сезону 1006.2 993.3
12 27.11 Ю 3
{11}
50 км {ливн. осадки, метель} 5/0
[Ac As Ci fib]
-5.8 -8.4 82 -11 -11 по сезону 1008.7 995.6
15 27.11 ЮЗ 1 50 км слабый снег 10/0
[As op]
-5.2 -7.7 83 -8 -8 тепло 1008.8 995.8 -1.0 0.3
18 27.11 В 1 50 км слабый снег 10/0
[As op]
-5.8 -6.5 95 -8 -8 тепло 1007.6 994.5
21 27.11 В 1 35 км слабый снег 10/0
[As op]
-5.8 -6.5 95 -8 -8 тепло 1005.9 992.9
00 28.11 Ю 1 40 км слабый снег 10/0
[As op]
-4.6 -4.9 98 -7 -7 тепло 1005.2 992.3
03 28.11 ЮЗ 1 50 км слабый снег 8/0
[Ac As]
-4.8 -5.4 96 -7 -7 тепло 1006.1 993.2 -6.2 2 28
06 28.11 З 1 4000 м слабый ливневой снег 10/10 600 м
[Cb cap]
-4.7 -5.0 98 -7 -7 тепло 1008.7 995.7 -8.4
09 28.11 СЗ 1 4000 м слабый снег {ливн. осадки} 10/0
[Ac As]
-6.1 -7.2 92 -9 -8 по сезону 1011.6 998.5
12 28.11 С 1 50 км слабый снег {ливн. осадки} 10/0
[Ac As]
-6.9 -8.1 91 -9 -9 по сезону 1014.6 1001.5
15 28.11 С 1 50 км слабый снег 10/0
[As op]
-8.1 -9.1 92 -11 -11 по сезону 1016.9 1003.7 -4.3 0.2
18 28.11 В 2 50 км слабый снег 10/0
[As op]
-7.9 -8.9 93 -12 -12 по сезону 1017.5 1004.3
21 28.11 В 3 50 км {снег} 10/0
[As op]
-7.2 -8.1 93 -13 -13 по сезону 1016.4 1003.3
00 29.11 В 4 2300 м снег 10/0
[As op]
-5.3 -6.0 95 -12 -12 по сезону 1012.1 999.1
03 29.11 ЮВ 3 500 м сильный снег {метель} 10/0 300 м
[As op]
-1.9 -1.9 100 -7 -7 тепло 1008.4 995.5 -8.3 4 30
06 29.11 Ю 4 4000 м слабый дождь {снег} 10/0
[As op]
+1.4 +1.4 100 -4 -4 тепло 1005.9 993.3
09 29.11 Ю 4
{10}
4000 м {дождь} 10/0
[As op]
+3.0 +0.9 86 -2 -2 тепло 1005.2 992.7
12 29.11 Ю 5
{11}
50 км в посл. час ливневой дождь 10/3 600 м
[Cb cap Ac und]
+2.2 +1.2 93 -3 -3 тепло 1004.1 991.5
15 29.11 Ю 4
{12}
50 км 9/0
[Ac As]
+2.5 +0.4 86 -2 -2 тепло 1004.2 991.7 +3.3 4
18 29.11 ЮЗ 5
{10}
50 км 1/0
[Ac trans]
+1.6 -1.9 78 -4 -4 тепло 1004.9 992.3
21 29.11 ЮЗ 4
{10}
50 км 3/0
[Ac trans]
+0.8 -4.2 69 -4 -4 тепло 1006.9 993.9
00 30.11 ЮЗ 3 50 км 8/0
[Ac trans]
-0.8 -5.0 73 -5 -5 тепло 1008.9 996.1
03 30.11 ЮЗ 3 50 км 10/0
[Ac trans Cs]
-0.8 -4.6 75 -5 -5 тепло 1009.1 996.3 -0.9 24
06 30.11 Ю 2 4000 м 9/0
[Ac trans]
-1.0 -4.9 75 -5 -4 тепло 1010.4 997.6 -1.5
09 30.11 ЮЗ 2 4000 м {ливн. осадки} 9/0
[Ac trans]
0.0 -4.4 72 -3 -3 тепло 1010.2 997.4
12 30.11 Ю 1 50 км {ливн. осадки} 9/0
[Ac trans]
-0.8 -4.6 75 -3 -3 тепло 1009.8 997.0
15 30.11 ЮВ 1 50 км слабый снег 10/0
[Ac As]
-1.7 -4.1 84 -4 -4 тепло 1008.9 996.0 +0.3 0.0
18 30.11 ЮВ 1 50 км слабый снег 10/0
[Ac As]
-2.0 -2.6 96 -4 -4 тепло 1007.1 994.3
21 30.11 В 1 50 км слабый снег 10/0
[Ac As]
-2.2 -2.8 96 -5 -5 тепло 1005.6 992.8
00 1.12 С 1 2000 м сильный снег 10/0
[As op]
-2.4 -2.7 98 -5 -5 тепло 1005.0 992.2
03 1.12 СЗ 3 50 км слабый снег {метель} 10/0
[Ac As]
-6.6 -7.4 94 -12 -12 по сезону 1007.6 994.5 -6.7 3 26
06 1.12 СЗ 5 4000 м слабый ливневой снег 9/9 600 м
[Cb cap]
-10.5 -12.7 84 -18 -18 по сезону 1012.3 999.0 -10.9
09 1.12 З 4 4000 м позёмок {ливн. осадки, снег} 9/0
[Ac trans]
-12.2 -15.3 78 -19 -19 прохладно 1014.8 1001.4
12 1.12 З 4 50 км слабый снег {ливн. осадки} 8/0
[Ac As]
-14.5 -17.2 80 -22 -22 холодно 1017.4 1003.9
15 1.12 З 2 50 км слабый снег {метель} 10/0
[As op]
-15.4 -18.1 80 -20 -20 прохладно 1020.1 1006.4 -6.6 0.2
18 1.12 СЗ 2 11 км слабый снег {метель} 10/0
[As op]
-14.8 -16.8 85 -20 -20 прохладно 1022.0 1008.4
21 1.12 СЗ 1 10 км слабый снег 10/0
[As op]
-14.5 -16.5 85 -17 -17 по сезону 1024.5 1010.8
00 2.12 СЗ 1 10 км слабый снег 10/0
[Ac As]
-14.9 -16.9 85 -17 -17 по сезону 1026.4 1012.5
03 2.12 штиль 0 50 км слабый снег 10/0
[Ac trans Cs]
-15.9 -17.8 85 -16 -16 по сезону 1028.1 1014.3 -16.0 0.5 31
06 2.12 штиль 0 4000 м {снег} ясно -15.8 -17.1 90 -16 -15 по сезону 1030.1 1016.2 -17.0
09 2.12 Ю 1 4000 м 1/0
[Ci fib]
-13.0 -16.5 75 -15 -15 по сезону 1030.9 1017.3
12 2.12 штиль 0 50 км ясно -17.3 -19.2 85 -17 -17 по сезону 1032.2 1018.2
15 2.12 ЮВ 1 50 км ясно -18.9 -20.1 90 -22 -22 холодно 1032.4 1018.4 -12.1
18 2.12 Ю 1 50 км [диам. изморози 1 мм] ясно -20.2 -21.4 90 -23 -23 холодно 1032.8 1018.7
21 2.12 ЮВ 1 50 км [диам. изморози 2 мм] ясно -19.2 -20.4 90 -22 -22 холодно 1031.6 1017.5
00 3.12 ЮВ 1 50 км ясно -21.0 -22.2 90 -24 -24 холодно 1031.3 1017.2
03 3.12 ЮВ 2 50 км слабый снег [диам. изморози 2 мм] 10/0
[As op]
-17.4 -18.6 90 -23 -23 холодно 1029.4 1015.4 -21.3 0.0 30

 

Местоположение метеостанции Тюмень (Тюменская область, Россия): широта 57.12 долгота 65.43 высота над уровнем моря 102 м.

В архиве по умолчанию представлена погода в Тюмени за последнюю неделю. Архивные данные за месяц целиком и за предыдущие месяцы, начиная с января 2011 года, Вы можете получить, выбрав интересующий диапазон дат из раскрывающегося списка и нажав кнопку "Ввод!".

Внимание! Время в таблицах - всемирное. Для получения местного времени необходимо прибавить поправку, которая в Тюмени равна 5 ч.

Ветер - указаны скорость ветра в м/с - средняя за 10 мин, порывы в срок и между сроками (в фигурных скобках) и направление, откуда дует ветер: С - северный, СВ - северо-восточный, В - восточный, ЮВ - юго-восточный, Ю - южный, ЮЗ - юго-западный, З - западный, СЗ - северо-западный.
Видимость - горизонтальная дальность видимости в метрах или километрах. При видимости от 1 до 10 км при отсутствии осадков обычно наблюдается дымка, при ухудшении видимости до 1 км и менее - туман. В сухую погоду видимость может ухудшаться дымом, пылью или мглою.
Явления - указаны атмосферные явления, наблюдавшиеся в срок или в последний час перед сроком; фигурными скобками обозначены явления, наблюдавшиеся между сроками (за 1-3 часа до срока); квадратными скобками обозначены град или гололедные отложения с указанием их диаметра в мм.
Облачность - указаны через наклонную черту общая и нижняя облачность в баллах и высота нижней границы облаков в метрах; квадратными скобками обозначены формы облаков: Ci - перистые, Cs - перисто-слоистые, Cc - перисто-кучевые, Ac - высококучевые, As - высокослоистые, Sc - слоисто-кучевые, Ns - слоисто-дождевые, Cu - кучевые, Cb - кучево-дождевые. Подробнее классификацию облаков см. в Атласе облаков (PDF).
T - Температура воздуха - температура, измеренная на высоте 2 м над землей.
Td - Температура точки росы - температура, при понижении до которой содержащийся в воздухе водяной пар достигнет насыщения.
f - Относительная влажность воздуха - влажноcть воздуха, измеренная на высоте 2 м над землей.
Te - Эффективная температура - температура, которую ощущает одетый по сезону человек в тени. Характеристика душности погоды. При расчете учитывается влияние влажности воздуха и скорости ветра на теплоощущения человека.
Tes - Эффективная температура на солнце - температура, которую ощущает человек, с поправкой на солнечный нагрев. Характеристика знойности погоды. Зависит от высоты солнца над горизонтом, облачности и скорости ветра. Ночью, в пасмурную погоду, а также при ветре 12 м/с и более поправка равна нулю.
P - Атмосферное давление - приведенное к уровню моря атмосферное давление.
Po - Атмосферное давление - измеренное на уровне метеостанции атмосферное давление.
Tmin - Минимальная температура - минимум температуры воздуха на высоте 2 м над землей.
Tmax - Максимальная температура - максимум температуры воздуха на высоте 2 м над землей.
R - Количество осадков - Количество выпавших осадков, мм. При наведении курсора мыши на число - период времени, за который выпало указанное количество осадков.
S - Снежный покров - Высота снежного покрова, см. При наведении курсора мыши на число - состояние снежного покрова и степень покрытия местности в баллах.